P/2021 R6 ( Groeller )

Japanese version
Home page
Updated on November 15, 2021

---------------------------------------------------------------------

* Profile

Discovery Date September 12, 2021
Magnitude 20.2 mag
Discoverer Hannes Groeller (Mt. Lemmon)

* Pictures

* Orbital Elements

Epoch 2021 Nov. 2.0 TT = JDT 2459520.5
T 2021 Oct. 31.86278 TT                                 Rudenko
q   2.5521991            (2000.0)            P               Q
n   0.06270103     Peri.  220.71995     +0.79239311     -0.60877686
a   6.2750846      Node   176.11629     +0.59106506     +0.78195067
e   0.5932805      Incl.   34.92855     -0.15084845     -0.13395474
P  15.7
From 91 observations 2021 Aug. 31-Oct. 14, mean residual 0".4.

* Magnitudes Graph

        m1 = 14.5 + 5 log d + 10.0 log r

---------------------------------------------------------------------

The orbital elements are published on M.P.E.C. 2021-U31.
The magnitudes graphs are made with Comet for Windows.

---------------------------------------------------------------------

Copyright(C) Seiichi Yoshida (comet@aerith.net). All rights reserved.